Time,TemperatureF,DewpointF,PressureIn,WindDirection,WindDirectionDegrees,WindSpeedMPH,WindSpeedGustMPH,Humidity,HourlyPrecipIn,Conditions,Clouds,dailyrainin,SoftwareType,DateUTC
2013-04-21 00:02:00,29.0,26.0,30.25,North,360,10.0,-999.0,89,-99.99,,,-99.99,,2013-04-21 05:02:00,
2013-04-21 00:12:00,29.0,26.0,30.25,North,360,10.0,-999.0,89,-99.99,,,-99.99,,2013-04-21 05:12:00,
2013-04-21 00:22:00,29.0,26.0,30.24,North,360,7.0,-999.0,90,-99.99,,,-99.99,,2013-04-21 05:22:00,
2013-04-21 00:32:00,29.0,26.0,30.24,SE,140,9.0,-999.0,90,-99.99,,,-99.99,,2013-04-21 05:32:00,
2013-04-21 00:42:00,29.0,26.0,30.24,SE,140,9.0,-999.0,90,-99.99,,,-99.99,,2013-04-21 05:42:00,
2013-04-21 00:52:00,29.0,26.0,30.24,North,360,12.0,-999.0,90,-99.99,,,-99.99,,2013-04-21 05:52:00,
2013-04-21 01:01:00,29.0,27.0,30.23,North,360,9.0,-999.0,91,-99.99,,,-99.99,,2013-04-21 06:01:00,
2013-04-21 01:12:00,29.0,27.0,30.23,North,360,9.0,-999.0,91,-99.99,,,-99.99,,2013-04-21 06:12:00,
2013-04-21 01:21:00,29.0,27.0,30.23,ESE,113,9.0,-999.0,91,-99.99,,,-99.99,,2013-04-21 06:21:00,
2013-04-21 01:32:00,29.0,27.0,30.22,North,360,9.0,-999.0,92,-99.99,,,-99.99,,2013-04-21 06:32:00,
2013-04-21 01:42:00,29.0,27.0,30.22,North,360,9.0,-999.0,92,-99.99,,,-99.99,,2013-04-21 06:42:00,
2013-04-21 01:52:00,29.0,27.0,30.22,North,360,11.0,-999.0,92,-99.99,,,-99.99,,2013-04-21 06:52:00,
2013-04-21 02:01:00,30.0,28.0,30.21,North,360,12.0,-999.0,92,-99.99,,,-99.99,,2013-04-21 07:01:00,
2013-04-21 02:11:00,30.0,28.0,30.20,North,360,12.0,-999.0,92,-99.99,,,-99.99,,2013-04-21 07:11:00,
2013-04-21 02:21:00,30.0,28.0,30.20,North,360,12.0,-999.0,92,-99.99,,,-99.99,,2013-04-21 07:21:00,
2013-04-21 02:31:00,30.0,28.0,30.19,North,360,13.0,-999.0,92,-99.99,,,-99.99,,2013-04-21 07:31:00,
2013-04-21 02:41:00,30.0,28.0,30.19,North,360,13.0,-999.0,92,-99.99,,,-99.99,,2013-04-21 07:41:00,
2013-04-21 02:52:00,30.0,28.0,30.19,North,360,13.0,-999.0,93,-99.99,,,-99.99,,2013-04-21 07:52:00,
2013-04-21 03:01:00,30.0,28.0,30.19,North,360,13.0,-999.0,92,-99.99,,,-99.99,,2013-04-21 08:01:00,
2013-04-21 03:12:00,30.0,28.0,30.18,North,360,13.0,-999.0,92,-99.99,,,-99.99,,2013-04-21 08:12:00,
2013-04-21 03:21:00,30.0,28.0,30.18,North,360,13.0,-999.0,92,-99.99,,,-99.99,,2013-04-21 08:21:00,
2013-04-21 03:32:00,31.0,29.0,30.17,North,360,13.0,-999.0,92,-99.99,,,-99.99,,2013-04-21 08:32:00,
2013-04-21 03:41:00,31.0,29.0,30.17,North,360,13.0,-999.0,92,-99.99,,,-99.99,,2013-04-21 08:41:00,
2013-04-21 03:52:00,31.0,29.0,30.16,North,360,16.0,-999.0,92,-99.99,,,-99.99,,2013-04-21 08:52:00,
2013-04-21 04:01:00,31.0,29.0,30.16,North,360,13.0,-999.0,92,-99.99,,,-99.99,,2013-04-21 09:01:00,
2013-04-21 04:12:00,31.0,29.0,30.16,North,360,13.0,-999.0,92,-99.99,,,-99.99,,2013-04-21 09:12:00,
2013-04-21 04:21:00,31.0,29.0,30.16,North,360,12.0,-999.0,91,-99.99,,,-99.99,,2013-04-21 09:21:00,
2013-04-21 04:32:00,32.0,30.0,30.15,North,360,12.0,-999.0,91,-99.99,,,-99.99,,2013-04-21 09:32:00,
2013-04-21 04:43:00,32.0,30.0,30.15,North,360,12.0,-999.0,91,-99.99,,,-99.99,,2013-04-21 09:43:00,
2013-04-21 04:53:00,32.0,30.0,30.15,SSE,148,13.0,-999.0,91,-99.99,,,-99.99,,2013-04-21 09:53:00,
2013-04-21 05:02:00,32.0,30.0,30.14,North,360,15.0,-999.0,91,-99.99,,,-99.99,,2013-04-21 10:02:00,
2013-04-21 05:12:00,32.0,30.0,30.14,North,360,15.0,-999.0,91,-99.99,,,-99.99,,2013-04-21 10:12:00,
2013-04-21 05:22:00,32.0,29.0,30.14,North,360,15.0,-999.0,90,-99.99,,,-99.99,,2013-04-21 10:22:00,
2013-04-21 05:32:00,32.0,29.0,30.14,North,360,15.0,-999.0,90,-99.99,,,-99.99,,2013-04-21 10:32:00,
2013-04-21 05:42:00,32.0,29.0,30.14,North,360,15.0,-999.0,90,-99.99,,,-99.99,,2013-04-21 10:42:00,
2013-04-21 05:52:00,32.0,29.0,30.12,North,360,15.0,-999.0,89,-99.99,,,-99.99,,2013-04-21 10:52:00,
2013-04-21 06:02:00,32.0,29.0,30.12,North,360,13.0,-999.0,89,-99.99,,,-99.99,,2013-04-21 11:02:00,
2013-04-21 06:12:00,32.0,29.0,30.12,North,360,13.0,-999.0,89,-99.99,,,-99.99,,2013-04-21 11:12:00,
2013-04-21 06:22:00,33.0,30.0,30.11,North,360,15.0,-999.0,88,-99.99,,,-99.99,,2013-04-21 11:22:00,
2013-04-21 06:34:00,33.0,30.0,30.11,SSE,155,15.0,-999.0,88,-99.99,,,-99.99,,2013-04-21 11:34:00,
2013-04-21 06:42:00,33.0,30.0,30.11,SSE,155,15.0,-999.0,88,-99.99,,,-99.99,,2013-04-21 11:42:00,
2013-04-21 06:52:00,33.0,30.0,30.11,SSE,149,15.0,-999.0,87,-99.99,,,-99.99,,2013-04-21 11:52:00,
2013-04-21 07:02:00,33.0,30.0,30.10,North,360,14.0,-999.0,87,-99.99,,,-99.99,,2013-04-21 12:02:00,
2013-04-21 07:12:00,33.0,29.0,30.10,SE,138,15.0,-999.0,86,-99.99,,,-99.99,,2013-04-21 12:12:00,
2013-04-21 07:22:00,33.0,29.0,30.10,SE,138,15.0,-999.0,86,-99.99,,,-99.99,,2013-04-21 12:22:00,
2013-04-21 07:32:00,33.0,29.0,30.10,SSE,155,14.0,-999.0,85,-99.99,,,-99.99,,2013-04-21 12:32:00,
2013-04-21 07:42:00,33.0,29.0,30.10,SSE,155,14.0,-999.0,85,-99.99,,,-99.99,,2013-04-21 12:42:00,
2013-04-21 07:52:00,34.0,30.0,30.10,North,360,16.0,-999.0,84,-99.99,,,-99.99,,2013-04-21 12:52:00,
2013-04-21 08:01:00,34.0,30.0,30.09,SE,144,13.0,-999.0,84,-99.99,,,-99.99,,2013-04-21 13:01:00,
2013-04-21 08:12:00,34.0,30.0,30.09,SE,144,13.0,-999.0,84,-99.99,,,-99.99,,2013-04-21 13:12:00,
2013-04-21 08:21:00,34.0,29.0,30.09,SE,142,16.0,-999.0,83,-99.99,,,-99.99,,2013-04-21 13:21:00,
2013-04-21 08:32:00,35.0,30.0,30.09,ESE,107,16.0,-999.0,83,-99.99,,,-99.99,,2013-04-21 13:32:00,
2013-04-21 08:42:00,35.0,30.0,30.09,ESE,107,16.0,-999.0,83,-99.99,,,-99.99,,2013-04-21 13:42:00,
2013-04-21 08:52:00,35.0,30.0,30.08,SE,146,16.0,-999.0,82,-99.99,,,-99.99,,2013-04-21 13:52:00,
2013-04-21 09:02:00,35.0,30.0,30.07,SE,138,17.0,-999.0,83,-99.99,,,-99.99,,2013-04-21 14:02:00,
2013-04-21 09:11:00,35.0,30.0,30.07,SE,138,17.0,-999.0,83,-99.99,,,-99.99,,2013-04-21 14:11:00,
2013-04-21 09:21:00,35.0,30.0,30.06,North,360,18.0,-999.0,83,-99.99,,,-99.99,,2013-04-21 14:21:00,
2013-04-21 09:32:00,36.0,31.0,30.06,North,360,17.0,-999.0,83,-99.99,,,-99.99,,2013-04-21 14:32:00,
2013-04-21 09:42:00,36.0,31.0,30.06,North,360,17.0,-999.0,83,-99.99,,,-99.99,,2013-04-21 14:42:00,
2013-04-21 09:52:00,37.0,32.0,30.06,North,360,18.0,-999.0,82,-99.99,,,-99.99,,2013-04-21 14:52:00,
2013-04-21 10:02:00,37.0,32.0,30.06,SE,134,20.0,-999.0,82,-99.99,,,-99.99,,2013-04-21 15:02:00,
2013-04-21 10:11:00,37.0,32.0,30.06,SE,134,20.0,-999.0,82,-99.99,,,-99.99,,2013-04-21 15:11:00,
2013-04-21 10:22:00,37.0,32.0,30.05,North,360,19.0,-999.0,81,-99.99,,,-99.99,,2013-04-21 15:22:00,
2013-04-21 10:33:00,38.0,33.0,30.05,South,180,16.0,-999.0,81,-99.99,,,-99.99,,2013-04-21 15:33:00,
2013-04-21 10:43:00,38.0,33.0,30.05,South,180,16.0,-999.0,81,-99.99,,,-99.99,,2013-04-21 15:43:00,
2013-04-21 10:53:00,38.0,33.0,30.04,SSE,155,19.0,-999.0,81,-99.99,,,-99.99,,2013-04-21 15:53:00,
2013-04-21 11:03:00,38.0,33.0,30.04,South,191,19.0,-999.0,82,-99.99,,,-99.99,,2013-04-21 16:03:00,
2013-04-21 11:12:00,38.0,33.0,30.04,South,191,19.0,-999.0,82,-99.99,,,-99.99,,2013-04-21 16:12:00,
2013-04-21 11:22:00,40.0,34.0,30.04,North,360,18.0,-999.0,80,-99.99,,,-99.99,,2013-04-21 16:22:00,
2013-04-21 11:33:00,41.0,35.0,30.04,SSE,160,15.0,-999.0,80,-99.99,,,-99.99,,2013-04-21 16:33:00,
2013-04-21 11:42:00,41.0,35.0,30.04,SSE,160,15.0,-999.0,80,-99.99,,,-99.99,,2013-04-21 16:42:00,
2013-04-21 11:52:00,41.0,34.0,30.03,SE,141,21.0,-999.0,77,-99.99,,,-99.99,,2013-04-21 16:52:00,
2013-04-21 12:02:00,41.0,35.0,30.03,SSE,165,17.0,-999.0,78,-99.99,,,-99.99,,2013-04-21 17:02:00,
2013-04-21 12:12:00,42.0,36.0,30.02,SSE,166,18.0,-999.0,78,-99.99,,,-99.99,,2013-04-21 17:12:00,
2013-04-21 12:23:00,42.0,36.0,30.02,SSE,166,18.0,-999.0,78,-99.99,,,-99.99,,2013-04-21 17:23:00,
2013-04-21 12:32:00,43.0,36.0,30.02,North,360,13.0,-999.0,77,-99.99,,,-99.99,,2013-04-21 17:32:00,
2013-04-21 12:42:00,43.0,36.0,30.02,North,360,13.0,-999.0,77,-99.99,,,-99.99,,2013-04-21 17:42:00,
2013-04-21 12:52:00,42.0,36.0,30.02,North,360,14.0,-999.0,78,-99.99,,,-99.99,,2013-04-21 17:52:00,
2013-04-21 13:02:00,41.0,35.0,30.01,SSE,159,12.0,-999.0,79,-99.99,,,-99.99,,2013-04-21 18:02:00,
2013-04-21 13:11:00,41.0,35.0,30.01,SSE,159,12.0,-999.0,79,-99.99,,,-99.99,,2013-04-21 18:11:00,
2013-04-21 13:22:00,41.0,35.0,30.01,SSE,163,14.0,-999.0,80,-99.99,,,-99.99,,2013-04-21 18:22:00,
2013-04-21 13:32:00,42.0,36.0,30.00,SE,144,13.0,-999.0,79,-99.99,,,-99.99,,2013-04-21 18:32:00,
2013-04-21 13:42:00,42.0,36.0,30.00,SE,144,13.0,-999.0,79,-99.99,,,-99.99,,2013-04-21 18:42:00,
2013-04-21 13:52:00,42.0,36.0,30.00,SSE,148,14.0,-999.0,78,-99.99,,,-99.99,,2013-04-21 18:52:00,
2013-04-21 14:02:00,41.0,35.0,30.00,SSE,154,13.0,-999.0,80,-99.99,,,-99.99,,2013-04-21 19:02:00,
2013-04-21 14:12:00,41.0,35.0,30.00,SSE,154,13.0,-999.0,80,-99.99,,,-99.99,,2013-04-21 19:12:00,
2013-04-21 14:21:00,41.0,36.0,30.01,South,170,13.0,-999.0,83,-99.99,,,-99.99,,2013-04-21 19:21:00,
2013-04-21 14:32:00,40.0,37.0,30.01,SSE,157,9.0,-999.0,88,-99.99,,,-99.99,,2013-04-21 19:32:00,
2013-04-21 14:42:00,40.0,37.0,30.01,SSE,157,9.0,-999.0,88,-99.99,,,-99.99,,2013-04-21 19:42:00,
2013-04-21 14:52:00,39.0,36.0,30.01,SSE,160,3.0,-999.0,90,-99.99,,,-99.99,,2013-04-21 19:52:00,
2013-04-21 15:02:00,39.0,36.0,30.00,SSE,156,2.0,-999.0,90,-99.99,,,-99.99,,2013-04-21 20:02:00,
2013-04-21 15:11:00,39.0,36.0,30.00,SSE,156,2.0,-999.0,90,-99.99,,,-99.99,,2013-04-21 20:11:00,
2013-04-21 15:22:00,38.0,36.0,30.01,SSE,159,2.0,-999.0,91,-99.99,,,-99.99,,2013-04-21 20:22:00,
2013-04-21 15:32:00,38.0,36.0,30.00,SSE,159,3.0,-999.0,92,-99.99,,,-99.99,,2013-04-21 20:32:00,
2013-04-21 15:42:00,38.0,36.0,30.00,SSE,159,3.0,-999.0,92,-99.99,,,-99.99,,2013-04-21 20:42:00,
2013-04-21 15:52:00,38.0,36.0,30.01,SSE,153,3.0,-999.0,93,-99.99,,,-99.99,,2013-04-21 20:52:00,
2013-04-21 16:02:00,39.0,37.0,30.01,SSE,168,2.0,-999.0,93,-99.99,,,-99.99,,2013-04-21 21:02:00,
2013-04-21 16:12:00,39.0,37.0,30.01,South,175,1.0,-999.0,93,-99.99,,,-99.99,,2013-04-21 21:12:00,
2013-04-21 16:21:00,39.0,37.0,30.01,South,175,1.0,-999.0,93,-99.99,,,-99.99,,2013-04-21 21:21:00,
2013-04-21 16:33:00,38.0,36.0,30.01,South,178,3.0,-999.0,93,-99.99,,,-99.99,,2013-04-21 21:33:00,
2013-04-21 16:43:00,38.0,36.0,30.01,South,178,3.0,-999.0,93,-99.99,,,-99.99,,2013-04-21 21:43:00,
2013-04-21 16:53:00,38.0,36.0,30.01,South,178,3.0,-999.0,93,-99.99,,,-99.99,,2013-04-21 21:53:00,
2013-04-21 17:02:00,38.0,36.0,30.01,South,180,3.0,-999.0,93,-99.99,,,-99.99,,2013-04-21 22:02:00,
2013-04-21 17:12:00,38.0,36.0,30.01,South,180,3.0,-999.0,93,-99.99,,,-99.99,,2013-04-21 22:12:00,
2013-04-21 17:22:00,38.0,36.0,30.02,South,180,3.0,-999.0,93,-99.99,,,-99.99,,2013-04-21 22:22:00,
2013-04-21 17:33:00,38.0,36.0,30.02,SSW,207,4.0,-999.0,93,-99.99,,,-99.99,,2013-04-21 22:33:00,
2013-04-21 17:43:00,38.0,36.0,30.02,SSW,207,4.0,-999.0,93,-99.99,,,-99.99,,2013-04-21 22:43:00,
2013-04-21 17:52:00,39.0,37.0,30.02,SW,225,3.0,-999.0,92,-99.99,,,-99.99,,2013-04-21 22:52:00,
2013-04-21 18:02:00,38.0,36.0,30.03,West,262,4.0,-999.0,91,-99.99,,,-99.99,,2013-04-21 23:02:00,
2013-04-21 18:12:00,38.0,36.0,30.03,West,262,4.0,-999.0,91,-99.99,,,-99.99,,2013-04-21 23:12:00,
2013-04-21 18:22:00,37.0,34.0,30.04,North,360,7.0,-999.0,89,-99.99,,,-99.99,,2013-04-21 23:22:00,
2013-04-21 18:32:00,37.0,34.0,30.04,NW,319,7.0,-999.0,90,-99.99,,,-99.99,,2013-04-21 23:32:00,
2013-04-21 18:42:00,37.0,34.0,30.04,NW,319,7.0,-999.0,90,-99.99,,,-99.99,,2013-04-21 23:42:00,
2013-04-21 18:52:00,37.0,34.0,30.05,North,360,7.0,-999.0,89,-99.99,,,-99.99,,2013-04-21 23:52:00,
2013-04-21 19:01:00,37.0,34.0,30.06,North,360,5.0,-999.0,89,-99.99,,,-99.99,,2013-04-22 00:01:00,
2013-04-21 19:11:00,37.0,34.0,30.06,North,360,5.0,-999.0,89,-99.99,,,-99.99,,2013-04-22 00:11:00,
2013-04-21 19:21:00,37.0,34.0,30.07,North,360,4.0,-999.0,89,-99.99,,,-99.99,,2013-04-22 00:21:00,
2013-04-21 19:32:00,37.0,34.0,30.07,North,360,4.0,-999.0,89,-99.99,,,-99.99,,2013-04-22 00:32:00,
2013-04-21 19:42:00,37.0,34.0,30.07,North,360,4.0,-999.0,89,-99.99,,,-99.99,,2013-04-22 00:42:00,
2013-04-21 19:52:00,37.0,34.0,30.08,North,360,4.0,-999.0,89,-99.99,,,-99.99,,2013-04-22 00:52:00,
2013-04-21 20:01:00,37.0,34.0,30.09,NNW,329,5.0,-999.0,90,-99.99,,,-99.99,,2013-04-22 01:01:00,
2013-04-21 20:12:00,37.0,34.0,30.09,NNW,329,5.0,-999.0,90,-99.99,,,-99.99,,2013-04-22 01:12:00,
2013-04-21 20:21:00,37.0,34.0,30.09,North,360,6.0,-999.0,89,-99.99,,,-99.99,,2013-04-22 01:21:00,
2013-04-21 20:32:00,36.0,33.0,30.10,North,360,6.0,-999.0,90,-99.99,,,-99.99,,2013-04-22 01:32:00,
2013-04-21 20:41:00,36.0,33.0,30.10,North,360,6.0,-999.0,90,-99.99,,,-99.99,,2013-04-22 01:41:00,
2013-04-21 20:52:00,36.0,33.0,30.11,North,360,8.0,-999.0,89,-99.99,,,-99.99,,2013-04-22 01:52:00,
2013-04-21 21:02:00,36.0,33.0,30.12,North,360,9.0,-999.0,89,-99.99,,,-99.99,,2013-04-22 02:02:00,
2013-04-21 21:11:00,36.0,33.0,30.12,North,360,9.0,-999.0,89,-99.99,,,-99.99,,2013-04-22 02:11:00,
2013-04-21 21:21:00,36.0,33.0,30.12,North,360,9.0,-999.0,89,-99.99,,,-99.99,,2013-04-22 02:21:00,
2013-04-21 21:32:00,35.0,32.0,30.13,North,360,8.0,-999.0,89,-99.99,,,-99.99,,2013-04-22 02:32:00,
2013-04-21 21:42:00,35.0,32.0,30.13,North,360,8.0,-999.0,89,-99.99,,,-99.99,,2013-04-22 02:42:00,
2013-04-21 21:52:00,35.0,32.0,30.14,North,360,8.0,-999.0,88,-99.99,,,-99.99,,2013-04-22 02:52:00,
2013-04-21 22:02:00,35.0,32.0,30.15,North,360,8.0,-999.0,88,-99.99,,,-99.99,,2013-04-22 03:02:00,
2013-04-21 22:11:00,35.0,32.0,30.15,North,360,8.0,-999.0,88,-99.99,,,-99.99,,2013-04-22 03:11:00,
2013-04-21 22:22:00,34.0,31.0,30.16,North,360,8.0,-999.0,87,-99.99,,,-99.99,,2013-04-22 03:22:00,
2013-04-21 22:33:00,34.0,30.0,30.16,North,360,8.0,-999.0,86,-99.99,,,-99.99,,2013-04-22 03:33:00,
2013-04-21 22:43:00,34.0,30.0,30.16,North,360,8.0,-999.0,86,-99.99,,,-99.99,,2013-04-22 03:43:00,
2013-04-21 22:52:00,33.0,29.0,30.16,NNW,327,7.0,-999.0,86,-99.99,,,-99.99,,2013-04-22 03:52:00,
2013-04-21 23:03:00,33.0,29.0,30.17,North,360,8.0,-999.0,86,-99.99,,,-99.99,,2013-04-22 04:03:00,
2013-04-21 23:12:00,33.0,29.0,30.17,North,360,8.0,-999.0,86,-99.99,,,-99.99,,2013-04-22 04:12:00,
2013-04-21 23:23:00,33.0,29.0,30.17,North,360,7.0,-999.0,86,-99.99,,,-99.99,,2013-04-22 04:23:00,
2013-04-21 23:33:00,32.0,29.0,30.18,North,360,6.0,-999.0,87,-99.99,,,-99.99,,2013-04-22 04:33:00,
2013-04-21 23:43:00,32.0,29.0,30.18,North,360,6.0,-999.0,87,-99.99,,,-99.99,,2013-04-22 04:43:00,
2013-04-21 23:52:00,32.0,29.0,30.17,North,360,7.0,-999.0,88,-99.99,,,-99.99,,2013-04-22 04:52:00,